Regional Weather Roundup
Issued by NWS Wakefield, VA

Home | Current Version | Previous Version | Graphics & Text | Print | Product List | Glossary On
Versions: 1 2 3 4 5 6 7 8 9 10 11 12 13 14 15 16 17 18 19 20 21 22 23 24 25 26 27 28
000
ASUS41 KAKQ 270315
RWRAKQ

REGIONAL WEATHER ROUNDUP
NATIONAL WEATHER SERVICE WAKEFIELD VA
1100 PM EDT SUN MAR 26 2017

Note: "fair" indicates few or no clouds below 12,000 feet with no
significant weather and/or obstructions to visibility. * = Denotes
station may not report precipitation (e.g., rain,snow,etc.),
thunder or fog.

VAZ042-051-052>054-056-270400-
NORTHERN VIRGINIA

CITY           SKY/WX    TMP DP  RH WIND       PRES   REMARKS
WASH NATIONAL  DRIZZLE   47  47 100 E7        30.24F FOG
DULLES         LGT RAIN  46  45  96 E8        30.22F VSB 1
FORT BELVOIR   CLOUDY    47  45  94 CALM      30.23S
QUANTICO       LGT RAIN  48  48 100 NE6       30.24S FOG
FREDERICKSBRG* LGT RAIN  49  49 100 NE5       30.22S
STAFFORD*      LGT RAIN  47  47 100 E3        30.27R
WARRENTON      RAIN      49  46  89 E5        30.21F
CULPEPER*      DRIZZLE   49  49  99 E3        30.21F
MANASSAS*      LGT RAIN  47  46  97 E6        30.23F FOG
LEESBURG*      LGT RAIN  46  46 100 SE9       30.22F
WINCHESTER     CLOUDY    45  45 100 E5        30.18F
FRONT ROYAL*   CLOUDY    48  46  93 CALM      30.16S
LURAY*         MOCLDY    52  52 100 CALM      30.15F
$$

VAZ048-049-060>072-079>083-270400-
CENTRAL AND SOUTH CENTRAL VIRGINIA

CITY           SKY/WX    TMP DP  RH WIND       PRES   REMARKS
RICHMOND       MOCLDY    55  52  89 E5        30.18F
CHESTERFIELD*  FAIR     N/A N/A N/A E3        30.19S
PETERSBURG*    CLOUDY    57  52  82 E3        30.18S
HANOVER        PTCLDY    53  48  83 CALM      30.21R
TAPPAHANNOCK*  CLOUDY    51  51 100 E7        30.21S
QUINTON*       FAIR      53  53 100 E5        30.18F
CHARLOTTSVILLE CLOUDY    51  49  92 N6        30.19F
GORDONSVILLE*  CLOUDY    49  49 100 NE3       30.19F FOG
ORANGE*        DRIZZLE   48  46  93 N3        30.22S
LOUISA*        DRIZZLE   54  52  94 NE3       30.18F
BUMPASS*       CLOUDY    51  51  97 CALM      30.20F
FARMVILLE*     CLOUDY    55  54  99 N6        30.17S
CREWE*         CLOUDY    58  58 100 N3        30.17S
FORT PICKETT*  CLOUDY    65  49  56 SE6       30.17R
CHASE CITY*    CLOUDY    60  58  94 S3        30.16S
CLARKSVILLE*   CLOUDY    61  59  94 CALM      30.16S
SOUTH HILL*    CLOUDY    64  55  72 S7        30.22S
LAWRENCEVILLE* MOCLDY    63  54  72 SE5       30.17S
EMPORIA*       CLEAR     63  54  72 SE7       30.19S
$$

VAZ088>098-270400-
SOUTHEAST VIRGINIA

CITY           SKY/WX    TMP DP  RH WIND       PRES   REMARKS
NORFOLK        CLEAR     59  53  80 SE6       30.20F
VIRGINIA BEACH MOCLDY    57  51  80 SE9       30.21S
NORFOLK NAVAL  CLEAR     58  52  80 SE8       30.21F
WEST POINT*    CLEAR     51  49  93 E6        30.21S
SALUDA*        CLOUDY    48  48 100 E6        30.20F VSB 1/2
NEWPORT NEWS   CLEAR     52  49  89 E5        30.20F
LANGLEY AFB    CLEAR     53  51  94 S3        30.20F
FORT EUSTIS    CLEAR     55  50  83 E5        30.17F
WILLIAMSBURG*  CLEAR     54  52  94 CALM      30.20S
HR EXEC AP*    FAIR      57  50  77 SE6       30.18F
FRANKLIN*      CLEAR     60  52  75 S7        30.19S
US460-WAKEFLD  PTCLDY    54  52  93 CALM      30.19R
$$

VAZ020-022-025-037-045-270400-
WEST CENTRAL AND SOUTHWEST VIRGINIA

CITY           SKY/WX    TMP DP  RH WIND       PRES   REMARKS
STAUNTON*      DRIZZLE   51  49  93 CALM      30.17S
WAYNESBORO*    CLOUDY    48  48 100 E10       30.15F
HOT SPRINGS VA LGT RAIN  52  52 100 S12G20    30.15F VSB 1/4
LYNCHBURG      CLOUDY    54  52  93 NE10      30.17S
DANVILLE       CLOUDY    59  59 100 E5        30.14F
SOUTH BOSTON*  CLOUDY    61  57  87 CALM      30.15F
MARTINSVILLE   FOG       55  54  97 CALM      30.17S VSB 1/2
ROANOKE        LGT RAIN  58  57  97 SE8       30.16S
BLACKSBURG     MOCLDY    57  54  87 CALM      30.17S
DUBLIN*        MOCLDY    59  55  87 S5        30.15S
MARION*        CLEAR     60  53  78 CALM      30.14F
HILLSVILLE*    CLOUDY    56  56 100 S10       30.14F
RICHLANDS*     FAIR      58  52  79 S7        30.09F
WISE*          MOCLDY    61  50  67 S8        30.10S
ABINGDON*      MOCLDY    63  51  67 CALM      30.09S
$$

MDZ021>025-VAZ099-100-270400-
SOUTHERN MARYLAND AND THE DELMARVA PENINSULA

CITY           SKY/WX    TMP DP  RH WIND       PRES   REMARKS
PATUXENT RIVER FOG       47  47 100 E7        30.22S VSB 1/2
BAY BRIDGE APT CLOUDY    45  45 100 E7        30.24F FOG
LEONARDTOWN    CLOUDY    45  45 100 E3        30.23F VSB 1/2
DOVER          CLOUDY    45  45 100 NE10      30.25S FOG
GEORGETOWN     FOG       46  45  96 NE5       30.25F VSB 1
EASTON         FOG       46  44  94 E5        30.29R VSB 1
CAMBRIDGE      CLOUDY    46  45  93 NE3       30.24S FOG
SALISBURY      FOG       46  46 100 E9        30.22F VSB 1/2
OCEAN CITY     FOG       46  44  93 E5        30.24F VSB 1/2
WALLOPS ISLAND FOG       47  47 100 E9        30.23F VSB 1/4
ACCOMACK*      CLOUDY    48  47  98 E5        30.22S FOG
$$

NCZ012>017-030>032-270400-
NORTH CENTRAL AND EASTERN NORTH CAROLINA

CITY           SKY/WX    TMP DP  RH WIND       PRES   REMARKS
ROANOKE RAPIDS FAIR      63  54  72 S6        30.18S
RALEIGH        CLOUDY    68  53  58 S12       30.17R
ELIZABETH CITY CLEAR     55  52  89 SE5       30.22S
AHOSKIE*         N/A     60  55  81 S6        30.20R
EDENTON*       CLEAR     61  55  80 CALM      30.22S
CURRITUCK*     CLEAR     58  53  83 CALM      30.22F
KILL DEVIL HLS NOT AVBL
MANTEO         CLEAR     57  54  88 SE7       30.23S
CAPE HATTERAS  PTCLDY    66  55  67 S8        30.22F
TARBORO*       NOT AVBL
GOLDSBORO      CLEAR     63  55  75 SE3       30.18S
WASHINGTON     CLEAR     62  56  79 SE6       30.21S
GREENVILLE     CLEAR     63  55  77 S6        30.21S
NEW BERN       CLEAR     56  54  93 CALM      30.22S
WILMINGTON     CLEAR     59  56  89 CALM      30.19F
$$

VAZ048-270400-
ELSEWHERE

CITY           SKY/WX    TMP DP  RH WIND       PRES   REMARKS
HARRISBURG PA  DRIZZLE   42  42 100 E10       30.25F FOG
BALTIMORE      CLOUDY    44  44 100 E9        30.24F FOG
ANNAPOLIS      CLOUDY    46  45  96 E9        30.24F FOG
ANDREWS AFB    CLOUDY    45  44  97 E8        30.21F FOG
PHILADELPHIA   CLOUDY    41  39  93 NE7       30.30F FOG
HENDERSON NC   CLOUDY    64  50  61 S6        30.16S
GREENSBORO     CLOUDY    60  59  96 S5        30.13S
ROCKY MOUNT    CLEAR     63  54  72 S5        30.19R
$$

VAZ100-270400-
MARINE

STATION/POSITION TIME  TEMP    WIND        PRES    WAVE   SWELL
                       AIR SEA DIR/SP/G            HT/PER HT/PER
                 (UTC) (F)     (DEG/KT/KT) (MB)    (FT/S) (FT/S)
CAPE MAY NJ      0248   44 44   80/  8/ 15 1023.9F
LEWES DE         0248   44 45  100/ 14/ 18 1023.7F
OCEAN-CITY-INLET 0248   44 44   70/  5/  8 1024.5F
WACHAPREAGUE VA  0248   46 53   60/ 10/ 12 1023.0F
THOMAS POINT MD  0300   44 45   90/  9/  9   N/A
GOOSES REEF MD   0300   45 45  100/  8/ 10 1024.3    1/ 2
COVE POINT MD    0248   45     100/  8/  8 1024.4R
SOLOMONS ISLAND  0248   46 47   70/  8/  9   N/A
BISHOPS HEAD MD  0248   47 53   80/ 10/ 12 1023.5F
PINEY POINT MD   0248          120/  8/  9   N/A
POTOMAC MD       0300   47 46  110/  4/  6 1022.5    1/ 2
CAMBRIDGE MD     0248   45 47   50/  6/  8 1023.4R
LEWISETTA VA     0248   49 51  120/ 12/ 14 1023.0R
RAPPAHANNOCK LGT 0248          120/  8/  9 1023.5F
STINGRAY PT      0250   48     130/  6/  8 1022.5F
YORK RVR RNG VA  0248   52     130/ 16/ 17 1021.8F
YORKTOWN VA      0248   52 51   90/  7/  9 1022.4F
JAMESTOWN VA     0300   54 54  100/  6/  8   N/A
DOMINION TERM VA 0248   54      90/  5/  7 1022.5F
KIPTOPEKE VA     0248      50                N/A
CHES BAY BRIDGE  0248   56 48  160/ 11/ 13 1022.8F
CAPE HENRY VA    0248   58     160/ 10/ 16   N/A
WILLOUBY STN VA  0248   55     130/  8/  8 1023.4F
S CRANEY ISL VA  0248   60     150/  8/ 12 1022.4F
CAPE HENRY BUOY  0242      51                N/A     4/ 7
CAPE CHARLES BUO 0251      49                N/A     3/ 7
OFFSHORE WE BUOY 0251      48                N/A     4/ 7
64NM E OF VA BCH 0250   56 51  110/ 12/ 12 1023.3F   4/ 7   3/ 7
DUCK PIER NC     0248   54 47  140/ 11/ 12 1022.8F
44100 DUCK FRF   0235      51                N/A     3/ 7
44056 DUCK FRF   0230      51                N/A     3/ 6   2/18
OREGON INLET NC  0242   56 60  100/  5/  6 1023.5F
HATTERAS NC      0248   67 61  150/ 11/ 12 1023.1F
DIAMOND SHLS NC  0250   69 76  160/ 14/ 16 1023.6F   4/ 9   3/ 9
CAPE LOOKOUT NC  0200   67     140/ 11/ 12 1022.9R
$$




USA.gov is the U.S. government's official web portal to all federal, state and local government web resources and services.